DWFW8688 Weather Reports


Display with metric or nautical units.
time (UTC)temp
F
wind
direction
speed
MPH
gust
MPH
rain 1hr
in
rain 24hr
in
rain mn
in
humidity
%
barometer
mb
20210618234107 97 312 5.0 12.0 0.00 0.00 0.00 14 1010.3
20210618233607 97 322 4.0 10.0 0.00 0.00 0.00 14 1010.5
20210618233107 97 341 7.0 12.0 0.00 0.00 0.00 14 1010.4
20210618232606 97 344 3.0 7.0 0.00 0.00 0.00 14 1010.4
20210618232107 97 351 4.0 8.0 0.00 0.00 0.00 15 1010.4
20210618231607 97 322 5.0 9.0 0.00 0.00 0.00 14 1010.6
20210618231107 97 327 6.0 10.0 0.00 0.00 0.00 15 1010.5
20210618230607 97 323 5.0 9.0 0.00 0.00 0.00 14 1010.4
20210618230107 97 332 3.0 6.0 0.00 0.00 0.00 15 1010.4
20210618225607 97 282 6.0 10.0 0.00 0.00 0.00 14 1010.6
20210618225106 97 280 3.0 5.0 0.00 0.00 0.00 14 1010.6
20210618224607 98 310 6.0 9.0 0.00 0.00 0.00 14 1010.6
20210618224107 98 308 6.0 10.0 0.00 0.00 0.00 14 1010.5
20210618223606 98 322 2.0 9.0 0.00 0.00 0.00 14 1010.8
20210618223107 98 348 5.0 9.0 0.00 0.00 0.00 14 1010.8
20210618222607 98 0 2.0 6.0 0.00 0.00 0.00 14 1010.6
20210618222106 97 348 4.0 7.0 0.00 0.00 0.00 14 1010.9
20210618221607 98 10 5.0 8.0 0.00 0.00 0.00 14 1011.0
20210618221107 97 302 5.0 9.0 0.00 0.00 0.00 14 1011.1
20210618220607 97 317 3.0 10.0 0.00 0.00 0.00 15 1010.9
20210618220106 97 285 7.0 12.0 0.00 0.00 0.00 14 1011.1
20210618215606 97 299 6.0 12.0 0.00 0.00 0.00 14 1011.1
20210618215107 97 279 6.0 10.0 0.00 0.00 0.00 15 1011.1
20210618214606 97 306 6.0 12.0 0.00 0.00 0.00 15 1011.2
20210618214107 97 285 7.0 10.0 0.00 0.00 0.00 14 1011.2
20210618213607 97 1 6.0 12.0 0.00 0.00 0.00 15 1011.3
20210618213107 97 303 6.0 12.0 0.00 0.00 0.00 15 1011.4
20210618212607 97 329 9.0 13.0 0.00 0.00 0.00 16 1011.2
20210618212107 97 312 9.0 18.0 0.00 0.00 0.00 15 1011.4
20210618211607 97 283 5.0 10.0 0.00 0.00 0.00 15 1011.5
20210618211106 96 279 8.0 14.0 0.00 0.00 0.00 16 1011.5
20210618210607 97 296 7.0 12.0 0.00 0.00 0.00 16 1011.6
20210618210107 96 319 6.0 13.0 0.00 0.00 0.00 16 1011.7
20210618205607 96 300 6.0 9.0 0.00 0.00 0.00 16 1011.9
20210618205106 96 302 8.0 12.0 0.00 0.00 0.00 16 1012.1
20210618204607 96 285 5.0 12.0 0.00 0.00 0.00 17 1012.1
20210618204107 95 276 8.0 12.0 0.00 0.00 0.00 17 1012.3
20210618203607 95 303 7.0 12.0 0.00 0.00 0.00 17 1012.3
20210618203107 95 292 6.0 10.0 0.00 0.00 0.00 18 1012.3
20210618202607 95 294 7.0 13.0 0.00 0.00 0.00 17 1012.4
20210618202107 95 309 7.0 10.0 0.00 0.00 0.00 18 1012.6
20210618201607 94 286 7.0 12.0 0.00 0.00 0.00 18 1012.7
20210618201106 94 304 8.0 13.0 0.00 0.00 0.00 19 1012.6
20210618200607 94 307 6.0 13.0 0.00 0.00 0.00 19 1012.8
20210618200106 93 301 8.0 12.0 0.00 0.00 0.00 18 1013.1
20210618195606 93 290 8.0 14.0 0.00 0.00 0.00 20 1013.0
20210618195107 93 298 6.0 9.0 0.00 0.00 0.00 20 1013.0
20210618194606 93 311 6.0 14.0 0.00 0.00 0.00 20 1013.2
20210618194106 93 318 6.0 14.0 0.00 0.00 0.00 20 1013.3
20210618193606 92 297 8.0 12.0 0.00 0.00 0.00 20 1013.3
20210618193106 92 300 8.0 12.0 0.00 0.00 0.00 21 1013.6
20210618192607 92 308 7.0 9.0 0.00 0.00 0.00 21 1013.5
20210618192106 91 300 7.0 13.0 0.00 0.00 0.00 21 1013.7
20210618191607 91 305 7.0 12.0 0.00 0.00 0.00 21 1013.8
20210618191106 91 315 6.0 15.0 0.00 0.00 0.00 21 1014.0
20210618190606 91 300 7.0 13.0 0.00 0.00 0.00 21 1014.1
20210618190106 90 318 5.0 12.0 0.00 0.00 0.00 22 1014.0
20210618185607 90 332 10.0 13.0 0.00 0.00 0.00 20 1014.4
20210618185107 90 337 10.0 15.0 0.00 0.00 0.00 20 1014.3
20210618184607 89 298 6.0 18.0 0.00 0.00 0.00 21 1014.5
20210618184106 89 322 8.0 14.0 0.00 0.00 0.00 22 1014.5
20210618183606 89 305 9.0 15.0 0.00 0.00 0.00 22 1014.7
20210618183106 89 301 9.0 16.0 0.00 0.00 0.00 21 1014.6
20210618182606 88 292 9.0 18.0 0.00 0.00 0.00 21 1014.7
20210618182107 88 328 9.0 14.0 0.00 0.00 0.00 23 1014.7
20210618181606 87 333 9.0 14.0 0.00 0.00 0.00 22 1014.9
20210618181106 87 332 10.0 15.0 0.00 0.00 0.00 22 1014.6
20210618180607 86 320 7.0 15.0 0.00 0.00 0.00 23 1014.7
20210618180106 86 306 10.0 17.0 0.00 0.00 0.00 24 1014.8
20210618175606 86 318 8.0 18.0 0.00 0.00 0.00 25 1015.0
20210618175106 85 308 9.0 16.0 0.00 0.00 0.00 26 1014.8
20210618174606 85 319 7.0 14.0 0.00 0.00 0.00 27 1014.8
20210618174106 85 322 7.0 17.0 0.00 0.00 0.00 26 1014.9
20210618173605 84 318 9.0 15.0 0.00 0.00 0.00 28 1014.8
20210618173106 84 319 7.0 16.0 0.00 0.00 0.00 29 1014.8
20210618172606 84 325 10.0 20.0 0.00 0.00 0.00 28 1014.9
20210618172106 84 309 8.0 13.0 0.00 0.00 0.00 29 1014.8
20210618171605 84 327 10.0 16.0 0.00 0.00 0.00 29 1014.8
20210618171106 85 326 7.0 12.0 0.00 0.00 0.00 28 1015.0
20210618170609 86 329 8.0 14.0 0.00 0.00 0.00 26 1014.8
20210618170106 88 333 6.0 10.0 0.00 0.00 0.00 25 1014.8
20210618165606 87 313 2.0 6.0 0.00 0.00 0.00 23 1014.8
20210618165106 87 244 1.0 3.0 0.00 0.00 0.00 24 1015.0
20210618164606 86 244 2.0 3.0 0.00 0.00 0.00 23 1015.1
20210618164106 85 280 1.0 3.0 0.00 0.00 0.00 24 1015.0
20210618163606 84 283 2.0 3.0 0.00 0.00 0.00 25 1015.1
20210618163106 83 287 2.0 3.0 0.00 0.00 0.00 25 1015.0
20210618162606 82 284 4.0 8.0 0.00 0.00 0.00 26 1015.1
20210618162106 81 271 6.0 10.0 0.00 0.00 0.00 29 1015.3
20210618161606 80 282 4.0 6.0 0.00 0.00 0.00 32 1015.4
20210618161105 80 290 3.0 6.0 0.00 0.00 0.00 33 1015.3
20210618160606 79 317 5.0 6.0 0.00 0.00 0.00 33 1015.5
20210618160106 77 295 1.0 3.0 0.00 0.00 0.00 35 1015.5
20210618155606 77 224 1.0 5.0 0.00 0.00 0.00 35 1015.6
20210618155106 77 243 2.0 8.0 0.00 0.00 0.00 37 1015.6
20210618154606 76 329 8.0 12.0 0.00 0.00 0.00 35 1015.5
20210618154106 76 296 5.0 10.0 0.00 0.00 0.00 36 1015.3
20210618153605 76 68 5.0 10.0 0.00 0.00 0.00 36 1015.2
20210618153106 76 63 5.0 9.0 0.00 0.00 0.00 36 1016.0
20210618152606 76 190 3.0 7.0 0.00 0.00 0.00 36 1016.3
20210618152105 76 241 1.0 3.0 0.00 0.00 0.00 35 1016.4
20210618151605 75 303 4.0 6.0 0.00 0.00 0.00 35 1016.5
20210618151105 75 282 2.0 7.0 0.00 0.00 0.00 36 1016.5
20210618150606 75 323 3.0 7.0 0.00 0.00 0.00 37 1016.3
20210618150106 75 335 3.0 6.0 0.00 0.00 0.00 37 1016.0
20210618145606 75 297 5.0 6.0 0.00 0.00 0.00 37 1015.9
20210618145106 75 340 2.0 3.0 0.00 0.00 0.00 39 1015.8
20210618144605 74 355 0.0 1.0 0.00 0.00 0.00 40 1015.9
20210618144106 74 355 0.0 2.0 0.00 0.00 0.00 44 1016.0
20210618143605 74 355 1.0 2.0 0.00 0.00 0.00 45 1016.0
20210618143105 74 355 0.0 1.0 0.00 0.00 0.00 44 1015.8
20210618142606 74 355 0.0 1.0 0.00 0.00 0.00 45 1015.7
20210618142105 74 354 1.0 2.0 0.00 0.00 0.00 46 1015.9
20210618141606 74 339 0.0 1.0 0.00 0.00 0.00 43 1015.8
20210618141106 74 339 0.0 3.0 0.00 0.00 0.00 42 1015.6
20210618140607 74 336 3.0 3.0 0.00 0.00 0.00 41 1015.6
20210618140105 74 164 2.0 3.0 0.00 0.00 0.00 42 1015.5
20210618135605 74 163 0.0 2.0 0.00 0.00 0.00 42 1015.9
20210618135106 74 162 2.0 3.0 0.00 0.00 0.00 43 1015.8
20210618134605 74 113 1.0 3.0 0.00 0.00 0.00 42 1015.6
20210618134106 74 41 1.0 2.0 0.00 0.00 0.00 41 1015.5
20210618133606 74 41 1.0 5.0 0.00 0.00 0.00 41 1015.8
20210618133105 74 14 2.0 3.0 0.00 0.00 0.00 40 1015.8
20210618132605 74 2 2.0 3.0 0.00 0.00 0.00 39 1015.6
20210618132105 74 340 0.0 3.0 0.00 0.00 0.00 38 1015.7
20210618131606 74 340 2.0 3.0 0.00 0.00 0.00 37 1015.6
20210618131105 74 340 2.0 3.0 0.00 0.00 0.00 37 1015.6
20210618130606 74 310 3.0 3.0 0.00 0.00 0.00 37 1015.7
20210618130105 74 312 2.0 5.0 0.00 0.00 0.00 35 1015.5
20210618125605 74 291 3.0 5.0 0.00 0.00 0.00 35 1015.8
20210618125106 74 282 5.0 8.0 0.00 0.00 0.00 34 1015.5
20210618124605 74 300 6.0 9.0 0.00 0.00 0.00 34 1015.5
20210618124105 74 324 3.0 7.0 0.00 0.00 0.00 33 1015.2
20210618123605 74 294 3.0 6.0 0.00 0.00 0.00 33 1015.2
20210618123105 74 323 2.0 3.0 0.00 0.00 0.00 33 1015.4
20210618122605 74 275 3.0 6.0 0.00 0.00 0.00 33 1015.2
20210618122105 74 276 5.0 7.0 0.00 0.00 0.00 34 1014.9
20210618121605 74 275 3.0 5.0 0.00 0.00 0.00 34 1015.1
20210618121105 74 274 2.0 5.0 0.00 0.00 0.00 33 1015.1
20210618120608 74 325 3.0 7.0 0.00 0.00 0.00 34 1014.8
20210618120105 74 282 5.0 7.0 0.00 0.00 0.00 34 1014.7
20210618115605 73 289 5.0 7.0 0.00 0.00 0.00 34 1014.6
20210618115105 73 300 3.0 6.0 0.00 0.00 0.00 35 1014.8
20210618114606 72 296 3.0 7.0 0.00 0.00 0.00 36 1014.7
20210618114105 72 284 3.0 6.0 0.00 0.00 0.00 37 1014.7
20210618113605 72 303 1.0 2.0 0.00 0.00 0.00 39 1014.8
20210618113105 72 302 0.0 2.0 0.00 0.00 0.00 39 1014.7
20210618112605 72 304 2.0 3.0 0.00 0.00 0.00 39 1014.4
20210618112105 72 304 2.0 3.0 0.00 0.00 0.00 39 1014.6
20210618111605 72 306 2.0 3.0 0.00 0.00 0.00 39 1014.6
20210618111105 73 306 2.0 3.0 0.00 0.00 0.00 38 1014.7
20210618110605 73 303 0.0 3.0 0.00 0.00 0.00 39 1014.6
20210618110105 72 319 1.0 3.0 0.00 0.00 0.00 36 1014.5
20210618105605 72 319 3.0 3.0 0.00 0.00 0.00 36 1014.6
20210618105105 72 319 1.0 3.0 0.00 0.00 0.00 37 1014.6
20210618104605 72 319 2.0 3.0 0.00 0.00 0.00 38 1014.6
20210618104105 72 312 1.0 3.0 0.00 0.00 0.00 38 1014.7
20210618103605 71 315 2.0 6.0 0.00 0.00 0.00 37 1014.9
20210618103105 71 265 0.0 2.0 0.00 0.00 0.00 35 1014.7
20210618102605 71 260 1.0 2.0 0.00 0.00 0.00 39 1014.9
20210618102105 71 260 1.0 2.0 0.00 0.00 0.00 42 1015.1
20210618101605 71 262 1.0 5.0 0.00 0.00 0.00 42 1015.0
20210618101105 71 253 3.0 3.0 0.00 0.00 0.00 42 1014.9
20210618100606 72 185 2.0 3.0 0.00 0.00 0.00 42 1014.9
20210618100105 72 200 1.0 2.0 0.00 0.00 0.00 40 1014.8
20210618095605 72 211 0.0 2.0 0.00 0.00 0.00 41 1014.8
20210618095105 72 219 2.0 3.0 0.00 0.00 0.00 41 1014.9
20210618094605 72 239 1.0 3.0 0.00 0.00 0.00 41 1015.0
20210618094105 73 97 0.0 3.0 0.00 0.00 0.00 36 1015.0
20210618093605 73 97 0.0 1.0 0.00 0.00 0.00 36 1014.9
20210618093105 73 96 2.0 3.0 0.00 0.00 0.00 35 1015.1
20210618092605 73 86 2.0 3.0 0.00 0.00 0.00 35 1015.0
20210618092105 73 78 2.0 3.0 0.00 0.00 0.00 35 1015.2
20210618091605 73 56 1.0 3.0 0.00 0.00 0.00 34 1015.1
20210618091105 73 54 0.0 0.0 0.00 0.00 0.00 34 1015.0
20210618090605 73 54 2.0 3.0 0.00 0.00 0.00 33 1015.1
20210618090105 73 55 3.0 3.0 0.00 0.00 0.00 33 1015.0
20210618085605 73 55 2.0 3.0 0.00 0.00 0.00 34 1015.0
20210618085105 73 56 1.0 2.0 0.00 0.00 0.00 34 1015.0
20210618084604 73 56 1.0 2.0 0.00 0.00 0.00 34 1015.3
20210618084104 73 56 0.0 1.0 0.00 0.00 0.00 34 1015.2
20210618083605 73 56 2.0 3.0 0.00 0.00 0.00 35 1015.1
20210618083104 73 56 1.0 2.0 0.00 0.00 0.00 35 1015.3
20210618082604 74 56 0.0 2.0 0.00 0.00 0.00 35 1015.4
20210618082105 74 55 0.0 1.0 0.00 0.00 0.00 33 1015.3
20210618081605 74 55 0.0 1.0 0.00 0.00 0.00 34 1015.2
20210618081104 74 55 1.0 2.0 0.00 0.00 0.00 35 1015.3
20210618080608 74 55 1.0 2.0 0.00 0.00 0.00 33 1015.3
20210618080105 74 49 1.0 2.0 0.00 0.00 0.00 30 1015.1
20210618075605 74 50 2.0 3.0 0.00 0.00 0.00 30 1015.2
20210618075105 74 48 2.0 3.0 0.00 0.00 0.00 31 1015.1
20210618074605 74 348 0.0 1.0 0.00 0.00 0.00 33 1015.0
20210618074105 75 348 1.0 2.0 0.00 0.00 0.00 36 1015.3
20210618073604 75 348 0.0 1.0 0.00 0.00 0.00 36 1015.2
20210618073105 75 348 0.0 0.0 0.00 0.00 0.00 35 1015.1
20210618072604 76 348 1.0 2.0 0.00 0.00 0.00 34 1015.2
20210618072104 76 348 1.0 3.0 0.00 0.00 0.00 36 1015.0
20210618071604 77 350 1.0 3.0 0.00 0.00 0.00 31 1015.3
20210618071104 77 350 1.0 3.0 0.00 0.00 0.00 30 1015.2
20210618070605 77 350 0.0 1.0 0.00 0.00 0.00 30 1015.1
20210618070105 77 350 1.0 1.0 0.00 0.00 0.00 28 1015.0
20210618065604 77 350 1.0 1.0 0.00 0.00 0.00 29 1014.9
20210618065105 77 350 1.0 2.0 0.00 0.00 0.00 30 1015.0
20210618064605 77 350 1.0 2.0 0.00 0.00 0.00 30 1015.1
20210618064104 77 350 2.0 3.0 0.00 0.00 0.00 29 1014.8
20210618063604 78 350 2.0 3.0 0.00 0.00 0.00 30 1014.9
20210618063104 78 350 2.0 3.0 0.00 0.00 0.00 30 1015.0
20210618062604 78 350 1.0 3.0 0.00 0.00 0.00 27 1014.7
20210618062104 78 350 0.0 0.0 0.00 0.00 0.00 26 1014.9
20210618061605 78 350 0.0 0.0 0.00 0.00 0.00 26 1014.7
20210618061104 78 350 1.0 2.0 0.00 0.00 0.00 26 1014.8
20210618060605 79 350 1.0 2.0 0.00 0.00 0.00 27 1014.6
20210618060104 79 350 1.0 3.0 0.00 0.00 0.00 28 1014.6
20210618055604 79 350 1.0 3.0 0.00 0.00 0.00 28 1014.7
20210618055105 79 350 1.0 3.0 0.00 0.00 0.00 27 1014.4
20210618054605 80 350 1.0 2.0 0.00 0.00 0.00 27 1014.5
20210618054104 80 350 1.0 2.0 0.00 0.00 0.00 27 1014.6
20210618053605 80 350 1.0 2.0 0.00 0.00 0.00 27 1014.4
20210618053105 81 350 0.0 2.0 0.00 0.00 0.00 28 1014.5
20210618052604 81 350 0.0 0.0 0.00 0.00 0.00 26 1014.3
20210618052105 82 350 1.0 2.0 0.00 0.00 0.00 27 1014.4
20210618051605 82 350 0.0 3.0 0.00 0.00 0.00 27 1014.4
20210618051104 82 350 2.0 3.0 0.00 0.00 0.00 26 1014.5
20210618050604 83 347 2.0 3.0 0.00 0.00 0.00 26 1014.5
20210618050105 84 336 1.0 2.0 0.00 0.00 0.00 24 1014.3
20210618045604 84 336 1.0 2.0 0.00 0.00 0.00 23 1014.5
20210618045104 84 336 1.0 3.0 0.00 0.00 0.00 23 1014.2
20210618044604 84 340 3.0 5.0 0.00 0.00 0.00 23 1014.4
20210618044104 84 338 2.0 3.0 0.00 0.00 0.00 23 1014.2
20210618043604 84 342 3.0 5.0 0.00 0.00 0.00 23 1014.4
20210618043104 84 336 3.0 5.0 0.00 0.00 0.00 23 1014.1
20210618042604 85 326 2.0 5.0 0.00 0.00 0.00 23 1014.1
20210618042104 85 330 2.0 5.0 0.00 0.00 0.00 23 1014.2
20210618041604 85 335 2.0 5.0 0.00 0.00 0.00 23 1014.0
20210618041104 85 325 3.0 7.0 0.00 0.00 0.00 22 1014.1
20210618040605 85 338 3.0 8.0 0.00 0.00 0.00 22 1013.9
20210618040104 85 318 5.0 6.0 0.00 0.00 0.00 22 1014.0
20210618035604 86 334 3.0 6.0 0.00 0.00 0.00 22 1013.8
20210618035104 86 330 3.0 5.0 0.00 0.00 0.00 22 1013.7
20210618034604 86 334 5.0 7.0 0.00 0.00 0.00 22 1013.9
20210618034104 86 308 1.0 3.0 0.00 0.00 0.00 22 1013.8
20210618033604 86 321 3.0 5.0 0.00 0.00 0.00 22 1013.7
20210618033104 87 316 3.0 5.0 0.00 0.00 0.00 21 1013.6
20210618032604 87 290 3.0 7.0 0.00 0.00 0.00 21 1013.8
20210618032104 87 295 5.0 8.0 0.00 0.00 0.00 21 1013.7
20210618031604 87 300 5.0 12.0 0.00 0.00 0.00 21 1013.8
20210618031104 88 294 4.0 6.0 0.00 0.00 0.00 21 1013.6
20210618030104 88 328 5.0 8.0 0.00 0.00 0.00 20 1013.5
20210618025604 88 293 3.0 6.0 0.00 0.00 0.00 20 1013.6
20210618025105 89 308 5.0 9.0 0.00 0.00 0.00 20 1013.4
20210618024604 89 316 4.0 9.0 0.00 0.00 0.00 20 1013.4
20210618024105 89 328 6.0 9.0 0.00 0.00 0.00 20 1013.6
20210618023604 89 335 6.0 10.0 0.00 0.00 0.00 20 1013.4
20210618023105 89 328 6.0 10.0 0.00 0.00 0.00 20 1013.6
20210618022604 89 332 5.0 7.0 0.00 0.00 0.00 20 1013.5
20210618022104 90 333 5.0 12.0 0.00 0.00 0.00 20 1013.5
20210618021604 90 324 6.0 10.0 0.00 0.00 0.00 20 1013.4
20210618021105 90 334 5.0 9.0 0.00 0.00 0.00 20 1013.4
20210618020604 90 326 5.0 12.0 0.00 0.00 0.00 20 1013.4
20210618020105 91 326 6.0 12.0 0.00 0.00 0.00 19 1013.6
20210618015604 91 303 6.0 10.0 0.00 0.00 0.00 19 1013.6
20210618015104 91 305 5.0 12.0 0.00 0.00 0.00 19 1013.4
20210618014604 92 308 6.0 10.0 0.00 0.00 0.00 20 1013.5
20210618014104 92 310 5.0 12.0 0.00 0.00 0.00 19 1013.4
20210618013605 92 316 5.0 13.0 0.00 0.00 0.00 19 1013.4
20210618013104 92 328 8.0 13.0 0.00 0.00 0.00 19 1013.3
20210618012604 92 328 6.0 10.0 0.00 0.00 0.00 19 1013.3
20210618012105 92 298 6.0 13.0 0.00 0.00 0.00 19 1013.3
20210618011605 92 326 7.0 12.0 0.00 0.00 0.00 19 1013.4
20210618011104 93 318 5.0 13.0 0.00 0.00 0.00 19 1013.3
20210618010604 93 302 8.0 14.0 0.00 0.00 0.00 19 1013.5
20210618010105 93 309 6.0 13.0 0.00 0.00 0.00 19 1013.5
20210618005604 93 308 7.0 13.0 0.00 0.00 0.00 19 1013.3
20210618005104 94 318 6.0 12.0 0.00 0.00 0.00 19 1013.5
20210618004604 94 312 6.0 13.0 0.00 0.00 0.00 19 1013.5
20210618004104 94 317 6.0 12.0 0.00 0.00 0.00 19 1013.5
20210618003604 94 299 8.0 15.0 0.00 0.00 0.00 18 1013.5
20210618003104 94 324 7.0 16.0 0.00 0.00 0.00 18 1013.4
20210618002604 94 319 6.0 12.0 0.00 0.00 0.00 19 1013.6
20210618002104 94 320 6.0 15.0 0.00 0.00 0.00 18 1013.5
20210618001604 94 328 8.0 15.0 0.00 0.00 0.00 19 1013.6
20210618001104 94 324 10.0 14.0 0.00 0.00 0.00 18 1013.7
20210618000604 94 311 9.0 13.0 0.00 0.00 0.00 18 1013.7
20210618000104 94 321 9.0 14.0 0.00 0.00 0.00 19 1013.9
20210617235604 94 312 8.0 14.0 0.00 0.00 0.00 18 1013.8
20210617235104 94 319 8.0 15.0 0.00 0.00 0.00 19 1013.8
20210617234607 94 327 7.0 12.0 0.00 0.00 0.00 19 1013.7